Time,TemperatureF,DewpointF,PressureIn,WindDirection,WindDirectionDegrees,WindSpeedMPH,WindSpeedGustMPH,Humidity,HourlyPrecipIn,Conditions,Clouds,dailyrainin,SoftwareType,DateUTC
2017-05-26 00:01:00,55.6,48.8,29.86,SW,217,6.0,6.0,78,0.00,,,0.00,Wunderground v.1.15,2017-05-26 07:01:00,
2017-05-26 00:11:00,55.5,48.8,29.86,SW,223,5.0,5.0,78,0.00,,,0.00,Wunderground v.1.15,2017-05-26 07:11:00,
2017-05-26 00:16:00,55.6,48.8,29.86,SW,214,6.0,7.0,78,0.00,,,0.00,Wunderground v.1.15,2017-05-26 07:16:00,
2017-05-26 00:21:00,55.5,49.1,29.86,SSW,211,7.0,7.0,79,0.00,,,0.00,Wunderground v.1.15,2017-05-26 07:21:00,
2017-05-26 00:26:00,55.4,49.0,29.86,SSW,209,7.0,7.0,79,0.00,,,0.00,Wunderground v.1.15,2017-05-26 07:26:00,
2017-05-26 00:31:00,55.4,49.0,29.87,WSW,238,7.0,7.0,79,0.00,,,0.00,Wunderground v.1.15,2017-05-26 07:31:00,
2017-05-26 00:41:00,55.4,49.0,29.86,WSW,254,4.0,8.0,79,0.00,,,0.00,Wunderground v.1.15,2017-05-26 07:41:00,
2017-05-26 00:46:00,55.4,49.0,29.87,SW,217,5.0,12.0,79,0.00,,,0.00,Wunderground v.1.15,2017-05-26 07:46:00,
2017-05-26 00:51:00,55.4,49.0,29.87,SSW,213,5.0,5.0,79,0.00,,,0.00,Wunderground v.1.15,2017-05-26 07:51:00,
2017-05-26 00:56:00,55.3,48.9,29.86,SSW,208,5.0,7.0,79,0.00,,,0.00,Wunderground v.1.15,2017-05-26 07:56:00,
2017-05-26 01:01:00,55.2,49.1,29.86,SSW,192,6.0,7.0,80,0.00,,,0.00,Wunderground v.1.15,2017-05-26 08:01:00,
2017-05-26 01:11:00,55.2,49.1,29.87,SW,225,6.0,6.0,80,0.00,,,0.00,Wunderground v.1.15,2017-05-26 08:11:00,
2017-05-26 01:21:00,55.1,49.0,29.87,SSW,211,5.0,5.0,80,0.00,,,0.00,Wunderground v.1.15,2017-05-26 08:21:00,
2017-05-26 01:31:00,55.0,49.3,29.87,SSW,209,5.0,5.0,81,0.00,,,0.00,Wunderground v.1.15,2017-05-26 08:31:00,
2017-05-26 01:41:00,55.1,49.4,29.87,SSW,208,4.0,4.0,81,0.00,,,0.00,Wunderground v.1.15,2017-05-26 08:41:00,
2017-05-26 01:46:00,55.0,49.3,29.87,SSW,202,5.0,7.0,81,0.00,,,0.00,Wunderground v.1.15,2017-05-26 08:46:00,
2017-05-26 01:51:00,55.0,49.3,29.87,SSW,205,6.0,6.0,81,0.00,,,0.00,Wunderground v.1.15,2017-05-26 08:51:00,
2017-05-26 02:01:00,55.0,48.9,29.87,South,190,5.0,5.0,80,0.00,,,0.00,Wunderground v.1.15,2017-05-26 09:01:00,
2017-05-26 02:11:00,54.8,49.1,29.87,SSW,200,5.0,5.0,81,0.00,,,0.00,Wunderground v.1.15,2017-05-26 09:11:00,
2017-05-26 02:16:00,54.9,49.2,29.87,SSW,207,5.0,5.0,81,0.00,,,0.00,Wunderground v.1.15,2017-05-26 09:16:00,
2017-05-26 02:21:00,54.9,49.2,29.87,SSW,209,5.0,7.0,81,0.00,,,0.00,Wunderground v.1.15,2017-05-26 09:21:00,
2017-05-26 02:26:00,54.8,49.1,29.87,SSW,194,6.0,10.0,81,0.00,,,0.00,Wunderground v.1.15,2017-05-26 09:26:00,
2017-05-26 02:36:00,54.8,49.1,29.87,SSW,193,6.0,8.0,81,0.00,,,0.00,Wunderground v.1.15,2017-05-26 09:36:00,
2017-05-26 02:41:00,54.8,49.1,29.87,SW,218,6.0,6.0,81,0.00,,,0.00,Wunderground v.1.15,2017-05-26 09:41:00,
2017-05-26 02:46:00,54.9,49.2,29.87,SSW,210,6.0,6.0,81,0.00,,,0.00,Wunderground v.1.15,2017-05-26 09:46:00,
2017-05-26 02:51:00,54.9,49.2,29.87,SSW,212,5.0,5.0,81,0.00,,,0.00,Wunderground v.1.15,2017-05-26 09:51:00,
2017-05-26 03:01:00,54.9,49.2,29.87,South,186,5.0,5.0,81,0.00,,,0.00,Wunderground v.1.15,2017-05-26 10:01:00,
2017-05-26 03:11:00,55.0,49.3,29.87,SSW,209,4.0,5.0,81,0.00,,,0.00,Wunderground v.1.15,2017-05-26 10:11:00,
2017-05-26 03:16:00,54.9,49.2,29.87,SSW,202,5.0,8.0,81,0.00,,,0.00,Wunderground v.1.15,2017-05-26 10:16:00,
2017-05-26 03:26:00,54.9,49.2,29.87,South,191,6.0,6.0,81,0.00,,,0.00,Wunderground v.1.15,2017-05-26 10:26:00,
2017-05-26 03:31:00,54.9,49.2,29.87,SSW,206,6.0,7.0,81,0.00,,,0.00,Wunderground v.1.15,2017-05-26 10:31:00,
2017-05-26 03:41:00,54.8,48.7,29.87,SSW,198,6.0,6.0,80,0.00,,,0.00,Wunderground v.1.15,2017-05-26 10:41:00,
2017-05-26 03:51:00,54.8,48.7,29.87,South,178,5.0,5.0,80,0.00,,,0.00,Wunderground v.1.15,2017-05-26 10:51:00,
2017-05-26 03:56:00,54.8,49.1,29.87,South,190,5.0,5.0,81,0.00,,,0.00,Wunderground v.1.15,2017-05-26 10:56:00,
2017-05-26 04:01:00,54.7,49.0,29.87,SSW,206,7.0,7.0,81,0.00,,,0.00,Wunderground v.1.15,2017-05-26 11:01:00,
2017-05-26 04:11:00,54.7,49.0,29.87,SSW,201,7.0,7.0,81,0.00,,,0.00,Wunderground v.1.15,2017-05-26 11:11:00,
2017-05-26 04:16:00,54.7,49.0,29.87,SSW,209,6.0,7.0,81,0.00,,,0.00,Wunderground v.1.15,2017-05-26 11:16:00,
2017-05-26 04:21:00,54.7,49.0,29.87,SSW,209,6.0,6.0,81,0.00,,,0.00,Wunderground v.1.15,2017-05-26 11:21:00,
2017-05-26 04:26:00,54.7,49.0,29.88,WSW,238,6.0,6.0,81,0.00,,,0.00,Wunderground v.1.15,2017-05-26 11:26:00,
2017-05-26 04:31:00,54.7,49.0,29.88,SSW,194,6.0,10.0,81,0.00,,,0.00,Wunderground v.1.15,2017-05-26 11:31:00,
2017-05-26 04:41:00,54.7,48.6,29.88,SW,224,6.0,6.0,80,0.00,,,0.00,Wunderground v.1.15,2017-05-26 11:41:00,
2017-05-26 04:46:00,54.7,48.6,29.88,SW,236,7.0,7.0,80,0.00,,,0.00,Wunderground v.1.15,2017-05-26 11:46:00,
2017-05-26 04:51:00,54.6,48.6,29.88,SSW,203,7.0,7.0,80,0.00,,,0.00,Wunderground v.1.15,2017-05-26 11:51:00,
2017-05-26 05:01:00,54.5,48.5,29.88,South,186,6.0,6.0,80,0.00,,,0.00,Wunderground v.1.15,2017-05-26 12:01:00,
2017-05-26 05:11:00,54.6,48.6,29.88,South,185,7.0,10.0,80,0.00,,,0.00,Wunderground v.1.15,2017-05-26 12:11:00,
2017-05-26 05:16:00,54.5,48.5,29.88,SSW,202,7.0,10.0,80,0.00,,,0.00,Wunderground v.1.15,2017-05-26 12:16:00,
2017-05-26 05:21:00,54.6,48.6,29.88,SSW,210,7.0,7.0,80,0.00,,,0.00,Wunderground v.1.15,2017-05-26 12:21:00,
2017-05-26 05:26:00,54.6,48.6,29.88,SSW,192,6.0,9.0,80,0.00,,,0.00,Wunderground v.1.15,2017-05-26 12:26:00,
2017-05-26 05:31:00,54.6,48.6,29.88,SSW,211,6.0,6.0,80,0.00,,,0.00,Wunderground v.1.15,2017-05-26 12:31:00,
2017-05-26 05:41:00,54.6,48.6,29.88,SSW,210,7.0,8.0,80,0.00,,,0.00,Wunderground v.1.15,2017-05-26 12:41:00,
2017-05-26 05:46:00,54.6,48.6,29.89,SSW,196,7.0,8.0,80,0.00,,,0.00,Wunderground v.1.15,2017-05-26 12:46:00,
2017-05-26 05:56:00,54.6,48.6,29.89,SSW,211,6.0,7.0,80,0.00,,,0.00,Wunderground v.1.15,2017-05-26 12:56:00,
2017-05-26 06:01:00,54.6,48.6,29.89,SW,224,7.0,8.0,80,0.00,,,0.00,Wunderground v.1.15,2017-05-26 13:01:00,
2017-05-26 06:11:00,54.5,48.5,29.90,SSW,198,7.0,7.0,80,0.00,,,0.00,Wunderground v.1.15,2017-05-26 13:11:00,
2017-05-26 06:16:00,54.6,48.6,29.90,South,188,6.0,9.0,80,0.00,,,0.00,Wunderground v.1.15,2017-05-26 13:16:00,
2017-05-26 06:21:00,54.5,48.5,29.90,SSW,202,6.0,10.0,80,0.00,,,0.00,Wunderground v.1.15,2017-05-26 13:21:00,
2017-05-26 06:26:00,54.6,48.6,29.90,South,169,7.0,10.0,80,0.00,,,0.00,Wunderground v.1.15,2017-05-26 13:26:00,
2017-05-26 06:31:00,54.5,48.5,29.90,SSW,194,6.0,6.0,80,0.00,,,0.00,Wunderground v.1.15,2017-05-26 13:31:00,
2017-05-26 06:41:00,54.6,48.6,29.91,SSW,207,6.0,6.0,80,0.00,,,0.00,Wunderground v.1.15,2017-05-26 13:41:00,
2017-05-26 06:46:00,54.7,48.6,29.91,SSW,208,8.0,8.0,80,0.00,,,0.00,Wunderground v.1.15,2017-05-26 13:46:00,
2017-05-26 06:51:00,54.7,48.6,29.91,South,173,7.0,8.0,80,0.00,,,0.00,Wunderground v.1.15,2017-05-26 13:51:00,
2017-05-26 07:01:00,54.8,49.1,29.91,SW,219,7.0,8.0,81,0.00,,,0.00,Wunderground v.1.15,2017-05-26 14:01:00,
2017-05-26 07:11:00,54.9,48.8,29.91,SSW,196,7.0,7.0,80,0.00,,,0.00,Wunderground v.1.15,2017-05-26 14:11:00,
2017-05-26 07:16:00,54.9,48.8,29.92,SSW,205,7.0,7.0,80,0.00,,,0.00,Wunderground v.1.15,2017-05-26 14:16:00,
2017-05-26 07:21:00,55.0,48.9,29.92,SW,234,8.0,8.0,80,0.00,,,0.00,Wunderground v.1.15,2017-05-26 14:21:00,
2017-05-26 07:26:00,55.0,49.3,29.92,SSW,209,7.0,8.0,81,0.00,,,0.00,Wunderground v.1.15,2017-05-26 14:26:00,
2017-05-26 07:31:00,55.1,49.0,29.92,South,180,7.0,7.0,80,0.00,,,0.00,Wunderground v.1.15,2017-05-26 14:31:00,
2017-05-26 07:41:00,55.3,49.2,29.92,SSW,212,7.0,7.0,80,0.00,,,0.00,Wunderground v.1.15,2017-05-26 14:41:00,
2017-05-26 07:46:00,55.5,49.4,29.92,SSW,193,6.0,7.0,80,0.00,,,0.00,Wunderground v.1.15,2017-05-26 14:46:00,
2017-05-26 07:51:00,55.5,49.4,29.92,SSW,206,7.0,7.0,80,0.00,,,0.00,Wunderground v.1.15,2017-05-26 14:51:00,
2017-05-26 07:56:00,55.7,49.6,29.93,SW,214,8.0,8.0,80,0.00,,,0.00,Wunderground v.1.15,2017-05-26 14:56:00,
2017-05-26 08:01:00,55.7,49.6,29.93,SSW,212,7.0,7.0,80,0.00,,,0.00,Wunderground v.1.15,2017-05-26 15:01:00,
2017-05-26 08:11:00,56.0,49.6,29.93,SSW,203,6.0,10.0,79,0.00,,,0.00,Wunderground v.1.15,2017-05-26 15:11:00,
2017-05-26 08:16:00,56.1,50.0,29.93,South,190,6.0,10.0,80,0.00,,,0.00,Wunderground v.1.15,2017-05-26 15:16:00,
2017-05-26 08:26:00,56.3,49.9,29.94,South,171,6.0,9.0,79,0.00,,,0.00,Wunderground v.1.15,2017-05-26 15:26:00,
2017-05-26 08:31:00,56.5,49.7,29.94,SSW,206,5.0,5.0,78,0.00,,,0.00,Wunderground v.1.15,2017-05-26 15:31:00,
2017-05-26 08:41:00,56.9,50.1,29.94,South,174,5.0,10.0,78,0.00,,,0.00,Wunderground v.1.15,2017-05-26 15:41:00,
2017-05-26 08:46:00,57.0,49.9,29.94,SW,223,6.0,10.0,77,0.00,,,0.00,Wunderground v.1.15,2017-05-26 15:46:00,
2017-05-26 08:51:00,57.0,49.9,29.94,South,182,6.0,11.0,77,0.00,,,0.00,Wunderground v.1.15,2017-05-26 15:51:00,
2017-05-26 08:56:00,57.2,50.1,29.94,South,178,7.0,11.0,77,0.00,,,0.00,Wunderground v.1.15,2017-05-26 15:56:00,
2017-05-26 09:01:00,57.2,50.1,29.95,SW,225,7.0,7.0,77,0.00,,,0.00,Wunderground v.1.15,2017-05-26 16:01:00,
2017-05-26 09:11:00,57.5,50.3,29.95,SSW,196,5.0,6.0,77,0.00,,,0.00,Wunderground v.1.15,2017-05-26 16:11:00,
2017-05-26 09:21:00,57.5,50.3,29.95,South,190,6.0,7.0,77,0.00,,,0.00,Wunderground v.1.15,2017-05-26 16:21:00,
2017-05-26 09:26:00,57.5,50.3,29.95,SSW,194,7.0,7.0,77,0.00,,,0.00,Wunderground v.1.15,2017-05-26 16:26:00,
2017-05-26 09:31:00,57.7,50.5,29.95,South,175,6.0,7.0,77,0.00,,,0.00,Wunderground v.1.15,2017-05-26 16:31:00,
2017-05-26 09:41:00,58.0,50.5,29.95,South,191,5.0,6.0,76,0.00,,,0.00,Wunderground v.1.15,2017-05-26 16:41:00,
2017-05-26 09:46:00,58.4,51.2,29.95,SSW,199,4.0,6.0,77,0.00,,,0.00,Wunderground v.1.15,2017-05-26 16:46:00,
2017-05-26 09:56:00,59.0,51.1,29.96,SSW,204,4.0,4.0,75,0.00,,,0.00,Wunderground v.1.15,2017-05-26 16:56:00,
2017-05-26 10:01:00,59.0,50.7,29.96,South,189,4.0,8.0,74,0.00,,,0.00,Wunderground v.1.15,2017-05-26 17:01:00,
2017-05-26 10:11:00,59.1,51.2,29.96,SW,229,5.0,5.0,75,0.00,,,0.00,Wunderground v.1.15,2017-05-26 17:11:00,
2017-05-26 10:16:00,59.3,51.4,29.96,SSW,202,4.0,5.0,75,0.00,,,0.00,Wunderground v.1.15,2017-05-26 17:16:00,
2017-05-26 10:21:00,59.1,51.2,29.96,SSW,213,4.0,4.0,75,0.00,,,0.00,Wunderground v.1.15,2017-05-26 17:21:00,
2017-05-26 10:41:00,60.3,52.0,29.97,WSW,239,4.0,4.0,74,0.00,,,0.00,Wunderground v.1.15,2017-05-26 17:41:00,
2017-05-26 10:46:00,60.7,52.0,29.97,SW,234,3.0,4.0,73,0.00,,,0.00,Wunderground v.1.15,2017-05-26 17:46:00,
2017-05-26 10:51:00,61.0,52.3,29.97,SSW,206,4.0,6.0,73,0.00,,,0.00,Wunderground v.1.15,2017-05-26 17:51:00,
2017-05-26 11:01:00,61.0,51.9,29.97,WSW,253,4.0,4.0,72,0.00,,,0.00,Wunderground v.1.15,2017-05-26 18:01:00,
2017-05-26 11:11:00,61.5,52.0,29.97,SSW,203,3.0,6.0,71,0.00,,,0.00,Wunderground v.1.15,2017-05-26 18:11:00,
2017-05-26 11:21:00,61.3,51.8,29.97,SSW,192,5.0,6.0,71,0.00,,,0.00,Wunderground v.1.15,2017-05-26 18:21:00,
2017-05-26 11:26:00,61.2,51.7,29.97,SSW,212,5.0,6.0,71,0.00,,,0.00,Wunderground v.1.15,2017-05-26 18:26:00,
2017-05-26 11:31:00,61.1,51.2,29.98,South,191,5.0,5.0,70,0.00,,,0.00,Wunderground v.1.15,2017-05-26 18:31:00,
2017-05-26 11:41:00,61.1,52.0,29.98,South,188,5.0,6.0,72,0.00,,,0.00,Wunderground v.1.15,2017-05-26 18:41:00,
2017-05-26 11:51:00,60.6,51.5,29.98,WSW,250,5.0,7.0,72,0.00,,,0.00,Wunderground v.1.15,2017-05-26 18:51:00,
2017-05-26 11:56:00,60.8,52.1,29.98,SW,233,3.0,7.0,73,0.00,,,0.00,Wunderground v.1.15,2017-05-26 18:56:00,
2017-05-26 12:01:00,61.0,52.3,29.98,West,269,2.0,2.0,73,0.00,,,0.00,Wunderground v.1.15,2017-05-26 19:01:00,
2017-05-26 12:11:00,60.9,51.8,29.98,WSW,243,3.0,3.0,72,0.00,,,0.00,Wunderground v.1.15,2017-05-26 19:11:00,
2017-05-26 12:21:00,61.1,52.0,29.99,SW,232,3.0,7.0,72,0.00,,,0.00,Wunderground v.1.15,2017-05-26 19:21:00,
2017-05-26 12:26:00,61.5,51.6,29.99,West,274,4.0,7.0,70,0.00,,,0.00,Wunderground v.1.15,2017-05-26 19:26:00,
2017-05-26 12:31:00,61.6,51.7,29.98,WSW,242,4.0,4.0,70,0.00,,,0.00,Wunderground v.1.15,2017-05-26 19:31:00,
2017-05-26 12:41:00,62.0,52.1,29.99,SW,229,3.0,3.0,70,0.00,,,0.00,Wunderground v.1.15,2017-05-26 19:41:00,
2017-05-26 12:46:00,62.0,52.1,29.99,SW,232,3.0,5.0,70,0.00,,,0.00,Wunderground v.1.15,2017-05-26 19:46:00,
2017-05-26 12:51:00,61.9,51.6,29.99,SSW,211,4.0,5.0,69,0.00,,,0.00,Wunderground v.1.15,2017-05-26 19:51:00,
2017-05-26 12:56:00,61.8,51.9,29.99,West,266,5.0,6.0,70,0.00,,,0.00,Wunderground v.1.15,2017-05-26 19:56:00,
2017-05-26 13:01:00,61.9,52.4,29.99,SSW,201,6.0,7.0,71,0.00,,,0.00,Wunderground v.1.15,2017-05-26 20:01:00,